Regional Weather Roundup
Issued by NWS

Home | Current Version | Previous Version | Text Only | Print | Product List | Glossary Off
Versions: 1 2 3 4 5 6 7 8 9 10 11 12 13 14 15 16 17 18 19 20 21 22 23 24 25 26 27 28 29 30 31 32 33 34 35 36 37 38 39 40 41 42 43 44 45 46 47 48 49 50

000
ASUS45 KCYS 021910
RWRWY

WYOMING REGIONAL WEATHER ROUNDUP
NATIONAL WEATHER SERVICE CHEYENNE WY
100 PM MDT WED SEP 02 2015

NOTE:  "FAIR" INDICATES FEW OR NO CLOUDS BELOW 12,000 FEET
WITH NO SIGNIFICANT WEATHER AND/OR OBSTRUCTIONS TO VISIBILITY.

WYZ001-022000-
YELLOWSTONE NATIONAL PARK

CITY           SKY/WX    TMP DP  RH WIND       PRES   REMARKS
LK YELLOWSTONE   N/A     70  30  22 S8G17     30.15F
W YELLOWSTONE  NOT AVBL

$$
WYZ002>013-054>058-071-098>099-022000-
NORTHERN WYOMING

CITY           SKY/WX    TMP DP  RH WIND       PRES   REMARKS
JACKSON        FAIR      79  36  21 S16G28    30.06F
CODY           FAIR      88  32  13 SW9       29.89F
GREYBULL       FAIR      95  33  11 SE9G21    29.80F HX  90
WORLAND        FAIR      92  38  15 SW18G29   29.86F
SHERIDAN       FAIR      94  30  10 N3        29.81F
BUFFALO        FAIR      93  29  10 VRB7G16   29.93F
GILLETTE       FAIR      92  36  14 S8G20     29.88F
HULETT         FAIR      91  36  14 S3        29.90F
NEWCASTLE      FAIR      88  37  16 S6        29.92F

$$
WYZ014>020-022>026-101>103-022000-
CENTRAL WYOMING

CITY           SKY/WX    TMP DP  RH WIND       PRES   REMARKS
BIG PINEY      FAIR      79  27  14 W10G18    30.13F
PINEDALE       FAIR      77  27  15 S13       30.14F
DUBOIS         FAIR      75  28  17 NW14G24   30.10F
LANDER         FAIR      88  34  14 SW15G26   29.99F
RIVERTON       FAIR      88  31  13 S8        29.99F
CASPER         FAIR      89  29  11 W21G31    30.01F
DOUGLAS        FAIR      91  32  12 W15       30.00F

$$
WYZ021-027>030-104>119-022000-
SOUTHERN WYOMING

CITY           SKY/WX    TMP DP  RH WIND       PRES   REMARKS
EVANSTON       PTSUNNY   77  38  24 SW21G32   30.17F
KEMMERER       FAIR     N/A N/A N/A SW24G36   30.18S
FORT BRIDGER   CLEAR     81  34  18 W21G29    30.19F
ROCK SPRINGS   FAIR      77  36  22 SW10G22   30.15F
DIXON          FAIR      81  41  24 S10G21    30.20F
RAWLINS        FAIR      80  37  21 SW16G26   30.18F
SARATOGA       FAIR      79  36  21 SW13G25   30.21F
LARAMIE        FAIR      77  38  24 VRB6      30.21F
CHEYENNE       PTSUNNY   85  34  16 NW9G20    30.12F
TORRINGTON     FAIR      93  41  16 N6        29.94F
PINE BLUFFS    FAIR      88  34  14 N12       30.04F

$$



USA.gov is the U.S. government's official web portal to all federal, state and local government web resources and services.